"Pseudo-MPEC" for P22ppXW

Created 2026 Aug 14 21:35:26 UT using Find_Orb

Click here for an explanation of pseudo-MPECs

 
 Astrometry: 
     P22ppXW*0C2026 08 14.38541022 15 28.566+27 39 42.70   ~8ECZ 20.03wXNEOCPF52
     P22ppXW 0C2026 08 14.39572322 15 32.359+27 38 43.39   ~8ECZ 20.09wXNEOCPF52
     P22ppXW 0C2026 08 14.40603822 15 36.142+27 37 43.86   ~8ECZ 20.17wXNEOCPF52
     P22ppXW 0C2026 08 14.55832222 16 31.487+27 22 46.32   ~8EKZ 19.88GVNEOCPF51
     P22ppXW 0C2026 08 14.55897022 16 31.714+27 22 42.52   ~8EKZ 19.89GVNEOCPF51
     P22ppXW 0C2026 08 14.55961722 16 31.958+27 22 38.59   ~8EKZ 20.02GVNEOCPF51
     P22ppXW 0C2026 08 14.56026622 16 32.187+27 22 34.84   ~8EKZ 19.98GVNEOCPF51
     P22ppXW KB2026 08 14.79521 22 18 11.60 +26 58 58.3    ~8EKZx19.7 GXNEOCPM75
     P22ppXW KB2026 08 14.81459 22 18 18.96 +26 57 07.5    ~8EKZ 19.4 GXNEOCPM75
     P22ppXW KB2026 08 14.86310 22 18 38.35 +26 52 21.2    ~8ELK       ZNEOCP106
     P22ppXW KB2026 08 14.86557 22 18 39.25 +26 52 06.9    ~8ELK 21.2 VZNEOCP106
     P22ppXW KB2026 08 14.86819 22 18 40.20 +26 51 52.0    ~8ELK       ZNEOCP106
     P22ppXW KB2026 08 14.87082 22 18 41.20 +26 51 36.9    ~8ELK       ZNEOCP106

Station data:
(106) Črni Vrh  (N45.945905 E14.071100)  Slovenia.  Observer J. Skvarč. 0.6-m
   f/3.3 Deltagraph + CCD.
(F51) Pan-STARRS 1, Haleakala  (N20.707234 W156.255910)  US/Hawaii.
   Observers J. Herman, T. Lowe, P. Minguez, A. Schultz, I. Smith. Measurers
   K. Chambers, T. de Boer, J. Fairlamb, H. Gao, M. Huber, C.-C. Lin, E.
   Magnier, Y. Ramanjooloo, R. Wainscoat, R. Weryk. 1.8-m Ritchey-Chrétien +
   CCD.
(F52) Pan-STARRS 2, Haleakala  (N20.707382 W156.255910)  US/Hawaii.
   Observers J. Herman, T. Lowe, P. Minguez, A. Schultz, I. Smith. Measurers
   K. Chambers, T. de Boer, J. Fairlamb, H. Gao, M. Huber, C.-C. Lin, E.
   Magnier, Y. Ramanjooloo, R. Wainscoat, R. Weryk. 1.8-m Ritchey-Chrétien +
   CCD.
(M75) Online observatory, Peschany  (N45.742938 E39.511550)  Russia.
   Observer A. V. Skachedub. 0.28-m f/2.2 reflector + CMO.

Orbital elements:  P22ppXW
   Perihelion 2026 Jul 19.201698 +/- 0.18 TT =  4:50:26.7 (JD 2461240.701698)
Epoch 2026 Aug 15.0 TT = JDT 2461267.5   Earth MOID: 0.0890   Ma: 0.0418
M   9.691347310 +/- 0.029           (J2000 ecliptic)             AutoNEOCP
n   0.361640356 +/- 0.00254         Peri.  125.778687 +/- 0.6
a   1.951123638 +/- 0.0091          Node   168.801154 +/- 0.35
e   0.46366189 +/- 0.00299          Incl.    7.046449 +/- 0.10
P   2.725/995.445d         H 23.43  G  0.15   U  8.7
q 1.046461961 +/- 0.00104    Q 2.855785315 +/- 0.0191
12 of 13 observations 2026 Aug. 14 (11.6 hr); mean residual 0".13
Residuals in arcseconds: 
260814 F52  .05+  .12-    260814 F51  .04+  .03-    260814 106  .13-  .05-    
260814 F52  .02-  .02+    260814 F51  .07-  .11+    260814 106  .39-  .03+    
260814 F52  .04-  .09+    260814 M75( 2.1-  .39-)   260814 106  .02-  .01-    
260814 F51  .09+  .07-    260814 M75  .32+  .12-    
260814 F51  .05-  .02+    260814 106  .07+  .12+    

Ephemerides (geocentric):
Date (UTC) HH   RA             Dec           delta  r     elong  mag " sig PA
---- --------  ------------   ------------  ------ ------ -----  --- --------
2026 08 14 22  22 18 55.893   +26 47 44.93  .10088 1.0896 137.7 20.2 .303 161
2026 08 14 23  22 19 12.067   +26 43 41.64  .10095 1.0897 137.8 20.2 .406 156
2026 08 15 00  22 19 28.196   +26 39 38.48  .10103 1.0899 137.8 20.2 .522 154
2026 08 15 01  22 19 44.278   +26 35 35.43  .10111 1.0900 137.9 20.2 .651 152
2026 08 15 02  22 20 00.314   +26 31 32.51  .10119 1.0901 138.0 20.2 .794 150
2026 08 15 03  22 20 16.305   +26 27 29.71  .10126 1.0903 138.0 20.2 .948 149
2026 08 15 04  22 20 32.249   +26 23 27.05  .10134 1.0904 138.1 20.2 1.12 148
2026 08 15 05  22 20 48.148   +26 19 24.51  .10142 1.0905 138.2 20.2 1.30 147
2026 08 15 06  22 21 04.002   +26 15 22.10  .10150 1.0907 138.2 20.2 1.49 146
2026 08 15 07  22 21 19.810   +26 11 19.83  .10157 1.0908 138.3 20.2 1.69 146
2026 08 15 08  22 21 35.573   +26 07 17.70  .10165 1.0909 138.4 20.2 1.91 145
2026 08 15 09  22 21 51.291   +26 03 15.70  .10173 1.0911 138.5 20.2 2.14 145
2026 08 15 10  22 22 06.963   +25 59 13.84  .10181 1.0912 138.5 20.2 2.38 145
2026 08 15 11  22 22 22.591   +25 55 12.12  .10189 1.0913 138.6 20.2 2.63 144
2026 08 15 12  22 22 38.174   +25 51 10.54  .10197 1.0915 138.7 20.2 2.90 144
2026 08 15 13  22 22 53.712   +25 47 09.11  .10205 1.0916 138.7 20.2 3.18 144
2026 08 15 14  22 23 09.205   +25 43 07.82  .10213 1.0917 138.8 20.2 3.46 144
2026 08 15 15  22 23 24.654   +25 39 06.68  .10221 1.0919 138.9 20.2 3.76 143
2026 08 15 16  22 23 40.059   +25 35 05.69  .10229 1.0920 139.0 20.2 4.08 143
2026 08 15 17  22 23 55.419   +25 31 04.86  .10238 1.0921 139.0 20.2 4.40 143
2026 08 15 18  22 24 10.735   +25 27 04.17  .10246 1.0923 139.1 20.2 4.74 143
2026 08 15 19  22 24 26.007   +25 23 03.64  .10254 1.0924 139.2 20.2 5.08 143
2026 08 15 20  22 24 41.235   +25 19 03.27  .10262 1.0925 139.2 20.2 5.44 143
2026 08 15 21  22 24 56.420   +25 15 03.06  .10270 1.0927 139.3 20.2 5.81 143
2026 08 15 22  22 25 11.560   +25 11 03.00  .10279 1.0928 139.4 20.2 6.20 143
2026 08 15 23  22 25 26.657   +25 07 03.11  .10287 1.0929 139.4 20.2 6.59 142
2026 08 16 00  22 25 41.711   +25 03 03.38  .10295 1.0931 139.5 20.2 6.99 142
2026 08 16 01  22 25 56.721   +24 59 03.81  .10304 1.0932 139.6 20.2 7.41 142
2026 08 16 02  22 26 11.688   +24 55 04.41  .10312 1.0933 139.7 20.2 7.84 142
2026 08 16 03  22 26 26.611   +24 51 05.18  .10321 1.0935 139.7 20.2 8.27 142
2026 08 16 04  22 26 41.492   +24 47 06.12  .10329 1.0936 139.8 20.2 8.72 142
2026 08 16 05  22 26 56.330   +24 43 07.23  .10337 1.0937 139.9 20.2 9.18 142
2026 08 16 06  22 27 11.125   +24 39 08.51  .10346 1.0939 139.9 20.2 9.65 142
2026 08 16 07  22 27 25.877   +24 35 09.97  .10354 1.0940 140.0 20.2 10.1 142
2026 08 16 08  22 27 40.586   +24 31 11.60  .10363 1.0941 140.1 20.2 10.6 142
2026 08 16 09  22 27 55.253   +24 27 13.41  .10372 1.0943 140.1 20.2 11.1 142
2026 08 16 10  22 28 09.878   +24 23 15.40  .10380 1.0944 140.2 20.2 11.6 142
2026 08 16 11  22 28 24.460   +24 19 17.57  .10389 1.0945 140.3 20.2 12.2 142
2026 08 16 12  22 28 39.001   +24 15 19.92  .10398 1.0947 140.4 20.2 12.7 142
2026 08 16 13  22 28 53.499   +24 11 22.45  .10406 1.0948 140.4 20.2 13.2 142
2026 08 16 14  22 29 07.955   +24 07 25.17  .10415 1.0950 140.5 20.2 13.8 142
2026 08 16 15  22 29 22.370   +24 03 28.08  .10424 1.0951 140.6 20.2 14.4 142
2026 08 16 16  22 29 36.742   +23 59 31.17  .10432 1.0952 140.6 20.2 14.9 142
2026 08 16 17  22 29 51.074   +23 55 34.45  .10441 1.0954 140.7 20.2 15.5 142
2026 08 16 18  22 30 05.363   +23 51 37.93  .10450 1.0955 140.8 20.2 16.1 142
2026 08 16 19  22 30 19.611   +23 47 41.59  .10459 1.0956 140.8 20.2 16.7 142
2026 08 16 20  22 30 33.818   +23 43 45.45  .10468 1.0958 140.9 20.2 17.4 142
2026 08 16 21  22 30 47.984   +23 39 49.50  .10477 1.0959 141.0 20.2 18.0 142